sat.trackr.live / text

‹ back to catalog

HULIANWANG DIGUI-54

NORAD 65111 · 2025-168F

PAYLOAD ACTIVE UNKNOWN

§ Identity

Operator
Country
PRC
Launch date
2025-08-04
Launch site
WSC
Launch vehicle
Mass (kg)
RCS (m²)

External: N2YO · Heavens-Above · Gunter

§ Orbital elements

Epoch: 2026-05-25T04:09:18.611712Z

Period
108.33 min
Inclination
50.0001°
Eccentricity
0.0011094
Mean motion
13.29321652 rev/d
Perigee alt
1,141.0 km
Apogee alt
1,157.7 km
Semi-major
7,527.5 km
B*
1.0192e-4
RAAN
47.8940°
Arg perigee
28.1323°
Mean anomaly
332.0147°
Rev number
3,963

§ Raw data

HULIANWANG DIGUI-541 65111U 25168F   26145.17313208 -.00000077  00000+0  10192-3 0  99992 65111  50.0001  47.8940 0011094  28.1323 332.0147 13.29321652 39633

JSON: /api/v1/satellites/65111 · /tle

For live sub-satellite position, see the globe view (requires WebGL).

§ Visibility from observer

Set your observer location to see the next 7 days of passes ≥ 10°. The values pass through the URL so the page stays shareable.

No JS? Fill the form by hand. The geolocation button needs JavaScript.